TimeEST,TemperatureF,Dew PointF,Humidity,Sea Level PressureIn,VisibilityMPH,Wind Direction,Wind SpeedMPH,Gust SpeedMPH,PrecipitationIn,Events,Conditions,WindDirDegrees,DateUTC
12:53 AM,30.9,12.9,47,29.99,10.0,NNW,8.1,-,N/A,,Overcast,330,2014-03-03 05:53:00
1:53 AM,30.0,12.9,49,29.99,10.0,NW,10.4,-,N/A,,Overcast,320,2014-03-03 06:53:00
2:53 AM,28.9,10.9,47,29.99,10.0,NNW,12.7,18.4,N/A,,Overcast,330,2014-03-03 07:53:00
3:53 AM,27.0,10.9,51,29.99,9.0,NNW,16.1,24.2,N/A,,Overcast,330,2014-03-03 08:53:00
4:22 AM,25.0,12.0,58,30.00,5.0,NNW,15.0,25.3,0.00,Snow,Light Snow,340,2014-03-03 09:22:00
4:41 AM,25.0,10.0,53,30.01,9.0,NNW,16.1,-,0.00,,Overcast,330,2014-03-03 09:41:00
4:53 AM,25.0,8.1,49,30.02,10.0,NW,12.7,20.7,0.00,,Overcast,320,2014-03-03 09:53:00
5:53 AM,23.0,6.1,48,30.06,10.0,North,12.7,21.9,N/A,,Overcast,350,2014-03-03 10:53:00
6:20 AM,19.9,9.0,62,30.07,2.5,NNW,17.3,24.2,0.00,Snow,Light Snow,340,2014-03-03 11:20:00
6:40 AM,19.0,10.0,68,30.07,1.0,NNW,15.0,26.5,0.00,Snow,Light Snow,340,2014-03-03 11:40:00
6:53 AM,18.0,12.0,78,30.08,0.8,NNW,16.1,-,0.00,Snow,Light Snow,340,2014-03-03 11:53:00
7:02 AM,18.0,12.0,78,30.09,0.8,NNW,13.8,-,0.00,Snow,Light Snow,340,2014-03-03 12:02:00
7:09 AM,18.0,12.0,78,30.08,1.0,NNW,12.7,-,0.00,Snow,Light Snow,340,2014-03-03 12:09:00
7:21 AM,19.0,10.0,68,30.09,3.0,North,13.8,20.7,0.00,Snow,Light Snow,360,2014-03-03 12:21:00
7:44 AM,19.9,3.9,50,30.10,10.0,NNW,15.0,19.6,0.00,,Overcast,330,2014-03-03 12:44:00
7:53 AM,19.9,3.9,50,30.11,10.0,NNW,13.8,20.7,0.00,,Overcast,330,2014-03-03 12:53:00
8:53 AM,19.9,3.9,50,30.12,10.0,North,13.8,23.0,N/A,,Overcast,350,2014-03-03 13:53:00
9:53 AM,21.0,1.9,44,30.12,10.0,NNW,12.7,19.6,N/A,,Mostly Cloudy,340,2014-03-03 14:53:00
10:53 AM,21.9,1.9,42,30.14,10.0,NNW,12.7,-,N/A,,Mostly Cloudy,330,2014-03-03 15:53:00
11:53 AM,21.9,1.0,40,30.13,10.0,NNW,10.4,19.6,N/A,,Mostly Cloudy,340,2014-03-03 16:53:00
12:53 PM,23.0,1.9,40,30.11,10.0,NNW,10.4,-,N/A,,Overcast,340,2014-03-03 17:53:00
1:53 PM,23.0,1.0,39,30.12,10.0,NW,10.4,-,N/A,,Scattered Clouds,320,2014-03-03 18:53:00
2:53 PM,23.0,1.9,40,30.13,10.0,NNW,9.2,-,N/A,,Clear,330,2014-03-03 19:53:00
3:53 PM,23.0,1.0,39,30.15,10.0,NNW,10.4,-,N/A,,Clear,330,2014-03-03 20:53:00
4:53 PM,23.0,1.0,39,30.18,10.0,NNW,5.8,-,N/A,,Clear,330,2014-03-03 21:53:00
5:53 PM,21.9,-0.0,38,30.21,10.0,Variable,6.9,-,N/A,,Clear,0,2014-03-03 22:53:00
6:53 PM,21.0,-0.0,40,30.25,10.0,NNW,5.8,-,N/A,,Clear,330,2014-03-03 23:53:00
7:53 PM,19.9,-0.9,40,30.26,10.0,NW,6.9,-,N/A,,Clear,320,2014-03-04 00:53:00
8:53 PM,18.0,-0.9,44,30.28,10.0,NNW,6.9,-,N/A,,Clear,340,2014-03-04 01:53:00
9:53 PM,17.1,-2.9,41,30.30,10.0,NNW,5.8,-,N/A,,Clear,340,2014-03-04 02:53:00
10:53 PM,15.1,-2.9,45,30.31,10.0,Calm,Calm,-,N/A,,Clear,0,2014-03-04 03:53:00
11:53 PM,12.9,-2.0,51,30.31,10.0,Calm,Calm,-,N/A,,Clear,0,2014-03-04 04:53:00